Location: Boiro
(42.6475°N, 8.8834°W)
Time: 01:14:20
(UTC+01:00)

Tiros 1 despin weight - Pass Details

Date: 02 December 2021
Orbit: 592 x 641 km, 48.2° (Epoch: 23 January)

Event Time Altitude Azimuth Distance (km) Brightness Sun altitude
Rises 19:10:52 0° 292° (WNW) 2,825 ? -12.2°
Reaches altitude 10° 19:13:12 10° 298° (WNW) 1,923 ? -12.7°
Maximum altitude 19:17:29 49° 14° (NNE) 768 ? -13.4°
Enters shadow 19:20:04 22° 80° (E) 1,312 ? -13.9°
Drops below altitude 10° 19:21:47 10° 90° (E) 1,932 - -14.2°
Sets 19:24:09 0° 96° (E) 2,840 - -14.6°
